Keahole Point, HI

9:18 PM HST on December 16, 2017 (GMT -1000)
Kona International At Keahole

Weather History for PHKO - February, 2014

Change the Weather History Date:

Wednesday, February 12, 2014

  Actual Average Record
Temperature  
Mean Temperature 76 °F -  
Max Temperature 82 °F 79 °F 87 °F (1986)
Min Temperature 71 °F 66 °F 64 °F (1987)
Cooling Degree Days 12    
Growing Degree Days 26 (Base 50)    
Moisture  
Dew Point 66 °F    
Average Humidity 68    
Maximum Humidity 81    
Minimum Humidity 53    
Precipitation  
Precipitation 0.00 in - - ()
Sea Level Pressure  
Sea Level Pressure 29.94 in    
Wind  
Wind Speed 6 mph (South)    
Max Wind Speed 9 mph    
Max Gust Speed -    
Visibility 10 miles    
Events      
Averages and records for this station are not official NWS values.
T = Trace of Precipitation, MM = Missing Value Source: NWS Daily Summary

Daily Weather History Graph

Daily Weather History Graph

Search for Another Location

Airport or City:

Trip Planner

Search our weather history database for the weather conditions in past years. The results will help you decide how hot, cold, wet, or windy it might be!

Date:

Astronomy

Feb. 12, 2014 Rise Set
Actual Time 6:54 AM HST 6:22 PM HST
Civil Twilight 6:32 AM HST 6:45 PM HST
Nautical Twilight 6:06 AM HST 7:11 PM HST
Astronomical Twilight 5:40 AM HST 7:36 PM HST
Moon 4:50 PM HST (2/12) 5:12 AM HST (2/12)
Length of Visible Light 12h 12m
Length of Day
11h 27m
Waxing Gibbous, 96% of the Moon is Illuminated
Feb 12
Waxing Gibbous
Feb 14
Full
Feb 22
Last Quarter
Feb 28
New
Mar 8
First Quarter

Hourly Weather History & Observations

Time (HST) Temp. Heat Index Dew Point Humidity Pressure Visibility Wind Dir Wind Speed Gust Speed Precip Events Conditions
12:53 AM 75.9 °F - 68.0 °F 76% 29.97 in 9.0 mi SSE 6.9 mph - N/A   Overcast
1:53 AM 75.9 °F - 69.1 °F 79% 29.97 in 8.0 mi SE 5.8 mph - N/A   Overcast
2:53 AM 75.0 °F - 64.9 °F 71% 29.95 in 10.0 mi SE 5.8 mph - N/A   Overcast
3:53 AM 73.9 °F - 64.9 °F 73% 29.94 in 10.0 mi East 4.6 mph - N/A   Clear
4:53 AM 73.0 °F - 64.0 °F 73% 29.94 in 10.0 mi East 3.5 mph - N/A   Clear
5:53 AM 72.0 °F - 64.0 °F 76% 29.95 in 10.0 mi ENE 4.6 mph - N/A   Overcast
6:53 AM 71.1 °F - 64.9 °F 81% 29.96 in 9.0 mi ENE 4.6 mph - N/A   Clear
7:53 AM 73.0 °F - 64.0 °F 73% 29.96 in 9.0 mi Calm Calm - N/A   Clear
8:53 AM 78.1 °F - 66.9 °F 68% 29.98 in 8.0 mi West 3.5 mph - N/A   Partly Cloudy
9:53 AM 79.0 °F - 68.0 °F 69% 29.99 in 10.0 mi West 5.8 mph - N/A   Mostly Cloudy
10:53 AM 80.1 °F 82.3 °F 66.9 °F 64% 29.98 in 10.0 mi Variable 5.8 mph - N/A   Scattered Clouds
11:53 AM 80.1 °F 82.7 °F 68.0 °F 67% 29.97 in 10.0 mi West 5.8 mph - N/A   Partly Cloudy
12:53 PM 81.0 °F 83.3 °F 66.9 °F 62% 29.94 in 10.0 mi West 6.9 mph - N/A   Clear
1:53 PM 82.0 °F 83.8 °F 64.9 °F 56% 29.91 in 10.0 mi WSW 8.1 mph - N/A   Partly Cloudy
2:53 PM 82.9 °F 84.4 °F 64.0 °F 53% 29.88 in 10.0 mi West 8.1 mph - N/A   Clear
3:53 PM 82.9 °F 84.4 °F 64.0 °F 53% 29.87 in 10.0 mi SW 9.2 mph - N/A   Clear
4:53 PM 81.0 °F 82.5 °F 64.0 °F 56% 29.88 in 10.0 mi WSW 6.9 mph - N/A   Clear
5:53 PM 79.0 °F - 64.9 °F 62% 29.89 in 10.0 mi SW 6.9 mph - N/A   Clear
6:53 PM 78.1 °F - 64.9 °F 64% 29.90 in 10.0 mi South 5.8 mph - N/A   Clear
7:53 PM 78.1 °F - 66.0 °F 66% 29.91 in 10.0 mi SSE 8.1 mph - N/A   Clear
8:53 PM 77.0 °F - 66.9 °F 71% 29.93 in 10.0 mi South 5.8 mph - N/A   Clear
9:53 PM 75.0 °F - 64.9 °F 71% 29.94 in 10.0 mi SE 8.1 mph - N/A   Clear
10:53 PM 75.0 °F - 64.9 °F 71% 29.93 in 10.0 mi ESE 6.9 mph - N/A   Clear
11:53 PM 75.0 °F - 63.0 °F 66% 29.92 in 10.0 mi SE 8.1 mph - N/A   Clear